THY6SB LTFM-HLLM

Flight info

Callsign THY6SB
Flight time N/A
Altitude 34000
Route RATVU UT35 AYT UM855 DERYA UA16 TOMBI M855 DASNI DCT TOSKA UM978 VAXOS DCT GUDIS DCT LINGI DCT ARLOS DCT EKLIS P32 RAMLI P310 SOLUN SOLUN2B
Aircraft B738/M-SDE2E3FGHIRWXY/LB1

Departure

Time 2026-05-08 06:27
Airport İstanbul Airport (LTFM)

Arrival

Time N/A
Airport Mitiga International Airport (HLLM)
Time Latitude Longitude Altitude Speed Heading
2026-05-08 06:09 41.26618 28.73490 312 ft 0 kts 71°
2026-05-08 06:16 41.26611 28.73464 311 ft 3 kts 70°
2026-05-08 06:16 41.26604 28.73439 312 ft 3 kts 70°
2026-05-08 06:17 41.26590 28.73387 311 ft 3 kts 56°
2026-05-08 06:17 41.26574 28.73370 311 ft 3 kts 16°
2026-05-08 06:17 41.26554 28.73366 312 ft 3 kts 357°
2026-05-08 06:18 41.26548 28.73367 312 ft 0 kts 352°
2026-05-08 06:19 41.26549 28.73367 312 ft 1 kts 352°
2026-05-08 06:19 41.26564 28.73363 310 ft 4 kts 347°
2026-05-08 06:19 41.26589 28.73335 312 ft 6 kts 298°
2026-05-08 06:20 41.26605 28.73276 312 ft 8 kts 296°
2026-05-08 06:20 41.26651 28.73229 312 ft 10 kts 342°
2026-05-08 06:20 41.26708 28.73170 309 ft 12 kts 305°
2026-05-08 06:20 41.26788 28.73107 309 ft 15 kts 354°
2026-05-08 06:21 41.26897 28.73102 308 ft 17 kts 359°
2026-05-08 06:21 41.27025 28.73100 307 ft 19 kts 359°
2026-05-08 06:21 41.27164 28.73097 306 ft 21 kts 359°
2026-05-08 06:21 41.27318 28.73094 302 ft 23 kts 359°
2026-05-08 06:22 41.27480 28.73094 297 ft 23 kts 358°
2026-05-08 06:22 41.27637 28.73088 293 ft 22 kts 359°
2026-05-08 06:22 41.27785 28.73056 287 ft 22 kts 326°
2026-05-08 06:22 41.27915 28.72970 281 ft 21 kts 357°
2026-05-08 06:23 41.28060 28.72966 277 ft 20 kts 359°
2026-05-08 06:23 41.28197 28.72962 273 ft 20 kts 358°
2026-05-08 06:23 41.28344 28.72959 269 ft 23 kts 359°
2026-05-08 06:23 41.28518 28.72954 265 ft 26 kts 358°
2026-05-08 06:24 41.28697 28.72950 265 ft 25 kts 359°
2026-05-08 06:24 41.28866 28.72948 263 ft 23 kts 360°
2026-05-08 06:24 41.29025 28.72945 255 ft 23 kts 358°
2026-05-08 06:24 41.29192 28.72945 244 ft 25 kts 359°
2026-05-08 06:25 41.29374 28.72939 236 ft 26 kts 357°
2026-05-08 06:25 41.29549 28.72929 237 ft 24 kts
2026-05-08 06:25 41.29714 28.72938 237 ft 23 kts 359°
2026-05-08 06:25 41.29854 28.72905 238 ft 20 kts 315°
2026-05-08 06:26 41.29867 28.72733 258 ft 19 kts 267°
2026-05-08 06:26 41.29870 28.72567 263 ft 13 kts 273°
2026-05-08 06:26 41.29826 28.72462 258 ft 16 kts 198°
2026-05-08 06:26 41.29703 28.72458 258 ft 34 kts 179°
2026-05-08 06:27 41.29199 28.72466 262 ft 109 kts 179°
2026-05-08 06:27 41.28215 28.72475 274 ft 172 kts 182°
2026-05-08 06:27 41.26879 28.72437 561 ft 208 kts 182°
2026-05-08 06:27 41.25338 28.72456 1040 ft 232 kts 180°
2026-05-08 06:28 41.23699 28.72561 1910 ft 233 kts 179°
2026-05-08 06:28 41.22101 28.72679 2981 ft 229 kts 181°
2026-05-08 06:28 41.20509 28.72783 3693 ft 232 kts 181°
2026-05-08 06:28 41.18860 28.72741 3997 ft 245 kts 195°
2026-05-08 06:29 41.17269 28.71811 4335 ft 256 kts 219°
2026-05-08 06:29 41.15920 28.70238 5077 ft 259 kts 224°
2026-05-08 06:29 41.14589 28.68617 5840 ft 261 kts 224°
2026-05-08 06:29 41.13237 28.66994 6574 ft 265 kts 220°
2026-05-08 06:30 41.11573 28.65954 7195 ft 274 kts 193°
2026-05-08 06:30 41.09650 28.65896 7914 ft 281 kts 176°
2026-05-08 06:30 41.07729 28.66219 8512 ft 287 kts 174°
2026-05-08 06:30 41.05799 28.66596 9202 ft 290 kts 173°
2026-05-08 06:31 41.03785 28.66990 9869 ft 295 kts 173°
2026-05-08 06:31 41.01741 28.67378 10445 ft 301 kts 174°
2026-05-08 06:31 40.99583 28.67773 10599 ft 323 kts 174°
2026-05-08 06:31 40.97284 28.68185 10771 ft 344 kts 174°
2026-05-08 06:32 40.94846 28.68615 10947 ft 362 kts 174°
2026-05-08 06:32 40.92317 28.69061 11381 ft 370 kts 174°
2026-05-08 06:32 40.89751 28.69504 11956 ft 374 kts 174°
2026-05-08 06:32 40.87156 28.69920 12568 ft 377 kts 175°
2026-05-08 06:33 40.84537 28.70328 13148 ft 381 kts 175°
2026-05-08 06:33 40.81891 28.70738 13727 ft 384 kts 175°
2026-05-08 06:33 40.79219 28.71154 14267 ft 388 kts 175°
2026-05-08 06:33 40.76529 28.71576 14825 ft 391 kts 175°
2026-05-08 06:34 40.73855 28.71997 15363 ft 393 kts 175°
2026-05-08 06:34 40.71123 28.72427 15880 ft 397 kts 175°
2026-05-08 06:34 40.68375 28.72859 16391 ft 400 kts 175°
2026-05-08 06:34 40.65603 28.73294 16906 ft 403 kts 175°
2026-05-08 06:35 40.62810 28.73732 17419 ft 405 kts 175°
2026-05-08 06:35 40.60000 28.74173 17925 ft 408 kts 175°
2026-05-08 06:35 40.57168 28.74617 18411 ft 412 kts 174°
2026-05-08 06:35 40.54386 28.75561 18791 ft 418 kts 157°
2026-05-08 06:36 40.51931 28.77649 19224 ft 422 kts 140°
2026-05-08 06:36 40.49731 28.80222 19664 ft 425 kts 138°
2026-05-08 06:36 40.47536 28.82865 20037 ft 429 kts 138°
2026-05-08 06:36 40.45323 28.85524 20430 ft 433 kts 139°
2026-05-08 06:37 40.43112 28.88152 20827 ft 436 kts 139°
2026-05-08 06:37 40.40847 28.90813 21222 ft 438 kts 139°
2026-05-08 06:37 40.38555 28.93488 21610 ft 441 kts 139°
2026-05-08 06:37 40.36248 28.96172 21978 ft 444 kts 139°
2026-05-08 06:38 40.33929 28.98866 22366 ft 447 kts 140°
2026-05-08 06:38 40.31535 29.01493 22705 ft 450 kts 148°
2026-05-08 06:38 40.28726 29.03245 23025 ft 448 kts 166°
2026-05-08 06:38 40.25710 29.04271 23462 ft 448 kts 168°
2026-05-08 06:39 40.22677 29.05273 23785 ft 451 kts 168°
2026-05-08 06:39 40.19636 29.06398 24023 ft 458 kts 161°
2026-05-08 06:39 40.16844 29.08441 24280 ft 465 kts 143°
2026-05-08 06:39 40.14373 29.11185 24647 ft 466 kts 140°
2026-05-08 06:40 40.11964 29.13961 24916 ft 469 kts 140°
2026-05-08 06:40 40.09503 29.16796 25159 ft 473 kts 140°
2026-05-08 06:40 40.07018 29.19627 25435 ft 476 kts 140°
2026-05-08 06:40 40.04506 29.22454 25722 ft 477 kts 140°
2026-05-08 06:41 40.01974 29.25281 25978 ft 480 kts 141°
2026-05-08 06:41 39.99425 29.28114 26228 ft 483 kts 141°
2026-05-08 06:41 39.96856 29.30966 26489 ft 485 kts 141°
2026-05-08 06:41 39.94280 29.33826 26745 ft 487 kts 141°
2026-05-08 06:42 39.91690 29.36688 26999 ft 489 kts 142°
2026-05-08 06:42 39.88839 29.39098 27187 ft 489 kts 158°
2026-05-08 06:42 39.85704 29.40817 27474 ft 488 kts 161°
2026-05-08 06:42 39.83607 29.41898 27625 ft 490 kts 161°
2026-05-08 06:43 39.79353 29.44095 27889 ft 494 kts 160°
2026-05-08 06:43 39.76161 29.45791 28111 ft 496 kts 160°
2026-05-08 06:43 39.72965 29.47528 28356 ft 498 kts 160°
2026-05-08 06:43 39.70851 29.48690 28511 ft 500 kts 160°
2026-05-08 06:44 39.66599 29.51029 28824 ft 501 kts 160°
2026-05-08 06:44 39.64428 29.52220 29021 ft 501 kts 160°
2026-05-08 06:44 39.60155 29.54471 29477 ft 500 kts 161°
2026-05-08 06:44 39.56916 29.56090 29793 ft 499 kts 162°
2026-05-08 06:45 39.53662 29.57690 30065 ft 500 kts 162°
2026-05-08 06:45 39.51502 29.58748 30254 ft 500 kts 162°
2026-05-08 06:45 39.48253 29.60346 30503 ft 500 kts 162°
2026-05-08 06:45 39.44992 29.61957 30715 ft 501 kts 162°
2026-05-08 06:46 39.41732 29.63574 30912 ft 502 kts 162°
2026-05-08 06:46 39.38465 29.65199 31116 ft 504 kts 162°
2026-05-08 06:46 39.35196 29.66826 31337 ft 504 kts 162°
2026-05-08 06:46 39.31916 29.68459 31535 ft 505 kts 162°
2026-05-08 06:47 39.28630 29.70092 31726 ft 506 kts 162°
2026-05-08 06:47 39.25309 29.71573 31890 ft 503 kts 172°
2026-05-08 06:47 39.21882 29.72128 32058 ft 493 kts 186°
2026-05-08 06:47 39.18504 29.71757 32293 ft 481 kts 198°
2026-05-08 06:48 39.15323 29.70618 32496 ft 471 kts 207°
2026-05-08 06:48 39.12230 29.69176 32697 ft 472 kts 207°
2026-05-08 06:48 39.09182 29.67752 32914 ft 472 kts 207°
2026-05-08 06:48 39.06090 29.66323 33154 ft 471 kts 207°
2026-05-08 06:49 39.02997 29.64912 33390 ft 471 kts 207°
2026-05-08 06:49 38.99901 29.63515 33588 ft 471 kts 207°
2026-05-08 06:49 38.96807 29.62129 33803 ft 471 kts 208°
2026-05-08 06:49 38.93706 29.60748 34050 ft 471 kts 208°
2026-05-08 06:50 38.90615 29.59375 34220 ft 471 kts 208°
2026-05-08 06:50 38.87510 29.57995 34211 ft 472 kts 208°
2026-05-08 06:50 38.81336 29.55259 34224 ft 471 kts 208°
2026-05-08 06:51 38.75164 29.52529 34238 ft 468 kts 208°
2026-05-08 06:51 38.69018 29.49812 34236 ft 467 kts 208°
2026-05-08 06:52 38.62885 29.47104 34239 ft 466 kts 208°
2026-05-08 06:52 38.56746 29.44397 34229 ft 466 kts 208°
2026-05-08 06:53 38.50615 29.41700 34230 ft 466 kts 208°
2026-05-08 06:53 38.44477 29.39005 34214 ft 466 kts 208°
2026-05-08 06:54 38.38331 29.36311 34211 ft 467 kts 208°
2026-05-08 06:54 38.32187 29.33628 34210 ft 467 kts 208°
2026-05-08 06:55 38.26034 29.30939 34206 ft 467 kts 208°
2026-05-08 06:55 38.19919 29.28273 34205 ft 467 kts 208°
2026-05-08 06:56 38.13762 29.25594 34215 ft 468 kts 208°
2026-05-08 06:56 38.07591 29.22913 34207 ft 469 kts 208°
2026-05-08 06:57 38.01406 29.20231 34201 ft 469 kts 208°
2026-05-08 06:57 37.95232 29.17561 34202 ft 469 kts 208°
2026-05-08 06:58 37.89058 29.14894 34190 ft 469 kts 208°
2026-05-08 06:58 37.82886 29.12233 34196 ft 468 kts 208°
2026-05-08 06:59 37.76755 29.09594 34191 ft 468 kts 208°
2026-05-08 06:59 37.70601 29.06950 34201 ft 467 kts 208°
2026-05-08 07:00 37.64449 29.04312 34197 ft 466 kts 208°
2026-05-08 07:00 37.58306 29.01681 34194 ft 466 kts 208°
2026-05-08 07:01 37.52167 28.99056 34203 ft 466 kts 208°
2026-05-08 07:01 37.46017 28.96431 34198 ft 467 kts 208°
2026-05-08 07:02 37.39853 28.93804 34191 ft 468 kts 208°
2026-05-08 07:02 37.33679 28.91178 34201 ft 469 kts 208°
2026-05-08 07:03 37.27518 28.88562 34180 ft 471 kts 208°
2026-05-08 07:03 37.21317 28.85936 34186 ft 470 kts 208°
2026-05-08 07:04 37.15129 28.83316 34187 ft 469 kts 208°
2026-05-08 07:04 37.08948 28.80708 34186 ft 469 kts 208°
2026-05-08 07:05 37.02755 28.78099 34165 ft 469 kts 208°
2026-05-08 07:05 36.96584 28.75510 34176 ft 467 kts 208°
2026-05-08 07:06 36.90423 28.72917 34152 ft 467 kts 208°
2026-05-08 07:06 36.84257 28.70329 34148 ft 467 kts 208°
2026-05-08 07:07 36.78100 28.67750 34158 ft 467 kts 208°
2026-05-08 07:07 36.71974 28.65189 34149 ft 467 kts 208°
2026-05-08 07:08 36.65821 28.62622 34150 ft 466 kts 208°
2026-05-08 07:08 36.59669 28.60060 34151 ft 466 kts 208°
2026-05-08 07:09 36.53520 28.57503 34147 ft 466 kts 208°
2026-05-08 07:09 36.47369 28.54949 34143 ft 466 kts 208°
2026-05-08 07:10 36.41213 28.52397 34137 ft 466 kts 208°
2026-05-08 07:10 36.35065 28.49853 34136 ft 466 kts 208°
2026-05-08 07:11 36.28907 28.47309 34132 ft 466 kts 208°
2026-05-08 07:11 36.22750 28.44770 34141 ft 466 kts 208°
2026-05-08 07:12 36.16633 28.42251 34142 ft 467 kts 208°
2026-05-08 07:12 36.10460 28.39714 34151 ft 467 kts 208°
2026-05-08 07:13 36.04294 28.37184 34154 ft 467 kts 208°
2026-05-08 07:13 35.98121 28.34654 34165 ft 468 kts 207°
2026-05-08 07:14 35.91939 28.32126 34161 ft 468 kts 207°
2026-05-08 07:14 35.85752 28.29600 34163 ft 468 kts 207°
2026-05-08 07:15 35.79559 28.27075 34161 ft 469 kts 207°
2026-05-08 07:15 35.73396 28.24567 34162 ft 469 kts 207°
2026-05-08 07:16 35.67190 28.22045 34162 ft 469 kts 207°
2026-05-08 07:16 35.60989 28.19530 34165 ft 469 kts 207°
2026-05-08 07:17 35.54780 28.17016 34164 ft 469 kts 207°
2026-05-08 07:17 35.48580 28.14509 34163 ft 469 kts 207°
2026-05-08 07:18 35.42378 28.12005 34165 ft 469 kts 207°
2026-05-08 07:18 35.36182 28.09508 34167 ft 469 kts 207°
2026-05-08 07:19 35.29981 28.07013 34159 ft 469 kts 207°
2026-05-08 07:19 35.23814 28.04535 34169 ft 469 kts 207°
2026-05-08 07:20 35.17618 28.02050 34171 ft 468 kts 207°
2026-05-08 07:20 35.11423 27.99569 34165 ft 469 kts 206°
2026-05-08 07:21 35.05229 27.97093 34165 ft 468 kts 206°
2026-05-08 07:21 34.99030 27.94619 34171 ft 468 kts 206°
2026-05-08 07:22 34.92838 27.92151 34169 ft 468 kts 206°
2026-05-08 07:22 34.86650 27.89688 34171 ft 468 kts 206°
2026-05-08 07:23 34.80456 27.87227 34172 ft 467 kts 206°
2026-05-08 07:23 34.74315 27.84791 34170 ft 467 kts 206°
2026-05-08 07:24 34.68143 27.82346 34170 ft 467 kts 206°
2026-05-08 07:24 34.61959 27.79900 34173 ft 466 kts 206°
2026-05-08 07:25 34.59027 27.78370 34150 ft 450 kts 222°
2026-05-08 07:25 34.56707 27.75970 34179 ft 430 kts 238°
2026-05-08 07:25 34.54026 27.69814 34168 ft 406 kts 261°
2026-05-08 07:26 34.53586 27.66479 34173 ft 397 kts 273°
2026-05-08 07:26 34.53594 27.59790 34175 ft 397 kts 275°
2026-05-08 07:27 34.53707 27.53073 34172 ft 400 kts 275°
2026-05-08 07:27 34.53789 27.46356 34174 ft 402 kts 275°
2026-05-08 07:28 34.53840 27.39558 34174 ft 404 kts 274°
2026-05-08 07:28 34.53876 27.32726 34173 ft 405 kts 274°
2026-05-08 07:29 34.53905 27.25876 34173 ft 406 kts 274°
2026-05-08 07:29 34.53929 27.19045 34173 ft 405 kts 274°
2026-05-08 07:30 34.53950 27.12223 34173 ft 404 kts 274°
2026-05-08 07:30 34.53967 27.05429 34170 ft 402 kts 274°
2026-05-08 07:31 34.53981 26.98655 34171 ft 401 kts 274°
2026-05-08 07:31 34.53991 26.91906 34172 ft 399 kts 274°
2026-05-08 07:32 34.53998 26.85225 34172 ft 398 kts 274°
2026-05-08 07:32 34.54001 26.78517 34174 ft 397 kts 274°
2026-05-08 07:33 34.54000 26.71819 34175 ft 397 kts 274°
2026-05-08 07:33 34.53997 26.66256 34171 ft 397 kts 274°
2026-05-08 07:34 34.53990 26.59557 34175 ft 397 kts 274°
2026-05-08 07:34 34.53979 26.52847 34171 ft 398 kts 274°
2026-05-08 07:35 34.53964 26.46130 34170 ft 398 kts 274°
2026-05-08 07:35 34.53945 26.39404 34169 ft 399 kts 274°
2026-05-08 07:36 34.53923 26.32664 34167 ft 400 kts 273°
2026-05-08 07:36 34.53897 26.25923 34163 ft 400 kts 273°
2026-05-08 07:37 34.53867 26.19174 34174 ft 400 kts 273°
2026-05-08 07:37 34.53833 26.12422 34162 ft 400 kts 273°
2026-05-08 07:38 34.53796 26.05678 34158 ft 400 kts 273°
2026-05-08 07:38 34.53755 25.98981 34157 ft 399 kts 273°
2026-05-08 07:39 34.53711 25.92260 34159 ft 398 kts 273°
2026-05-08 07:39 34.53663 25.85545 34153 ft 398 kts 273°
2026-05-08 07:40 34.53611 25.78839 34151 ft 397 kts 273°
2026-05-08 07:40 34.53556 25.72144 34162 ft 396 kts 273°
2026-05-08 07:41 34.53497 25.65478 34154 ft 395 kts 272°
2026-05-08 07:41 34.53435 25.58815 34151 ft 395 kts 272°
2026-05-08 07:42 34.53370 25.52168 34157 ft 394 kts 272°
2026-05-08 07:42 34.53300 25.45527 34162 ft 394 kts 272°
2026-05-08 07:43 34.53228 25.38933 34169 ft 393 kts 272°
2026-05-08 07:43 34.53152 25.32296 34156 ft 393 kts 272°
2026-05-08 07:44 34.53072 25.25661 34156 ft 393 kts 272°
2026-05-08 07:44 34.52989 25.19027 34157 ft 393 kts 272°
2026-05-08 07:45 34.52902 25.12394 34157 ft 393 kts 272°
2026-05-08 07:45 34.52811 25.05767 34168 ft 393 kts 272°
2026-05-08 07:46 34.52717 24.99125 34162 ft 393 kts 271°
2026-05-08 07:46 34.52620 24.92536 34164 ft 394 kts 271°
2026-05-08 07:47 34.52518 24.85905 34167 ft 394 kts 271°
2026-05-08 07:47 34.52413 24.79255 34170 ft 394 kts 271°
2026-05-08 07:48 34.52305 24.72617 34179 ft 394 kts 271°
2026-05-08 07:48 34.52193 24.65974 34174 ft 394 kts 271°
2026-05-08 07:49 34.52078 24.59337 34179 ft 394 kts 271°
2026-05-08 07:49 34.52126 24.52704 34182 ft 392 kts 276°
2026-05-08 07:50 34.52621 24.46114 34180 ft 392 kts 277°
2026-05-08 07:50 34.53121 24.39569 34190 ft 392 kts 276°
2026-05-08 07:51 34.53610 24.32970 34191 ft 392 kts 276°
2026-05-08 07:51 34.54088 24.26379 34192 ft 392 kts 276°
2026-05-08 07:52 34.54560 24.19784 34185 ft 392 kts 276°
2026-05-08 07:52 34.55027 24.13193 34187 ft 392 kts 276°
2026-05-08 07:53 34.55492 24.06597 34188 ft 392 kts 276°
2026-05-08 07:53 34.55952 24.00002 34193 ft 392 kts 276°
2026-05-08 07:54 34.56406 23.93452 34187 ft 392 kts 276°
2026-05-08 07:54 34.56860 23.86856 34187 ft 392 kts 275°
2026-05-08 07:55 34.57310 23.80265 34185 ft 392 kts 275°
2026-05-08 07:55 34.57757 23.73656 34181 ft 393 kts 275°
2026-05-08 07:56 34.58202 23.67042 34179 ft 393 kts 275°
2026-05-08 07:56 34.58642 23.60423 34178 ft 393 kts 275°
2026-05-08 07:57 34.59080 23.53804 34173 ft 394 kts 275°
2026-05-08 07:57 34.59514 23.47177 34171 ft 394 kts 275°
2026-05-08 07:58 34.59945 23.40534 34170 ft 395 kts 275°
2026-05-08 07:58 34.60371 23.33933 34167 ft 395 kts 274°
2026-05-08 07:59 34.60796 23.27276 34165 ft 395 kts 274°
2026-05-08 07:59 34.61217 23.20619 34163 ft 396 kts 274°
2026-05-08 08:00 34.61636 23.13955 34161 ft 396 kts 274°
2026-05-08 08:00 34.62051 23.07285 34155 ft 396 kts 274°
2026-05-08 08:01 34.62423 23.00617 34154 ft 396 kts 271°
2026-05-08 08:01 34.61904 22.93956 34158 ft 397 kts 264°
2026-05-08 08:02 34.61171 22.87320 34159 ft 397 kts 264°
2026-05-08 08:02 34.60449 22.80675 34155 ft 397 kts 264°
2026-05-08 08:03 34.59731 22.74017 34154 ft 397 kts 264°
2026-05-08 08:03 34.59018 22.67405 34148 ft 398 kts 264°
2026-05-08 08:04 34.58297 22.60746 34148 ft 398 kts 263°
2026-05-08 08:04 34.57572 22.54091 34148 ft 398 kts 263°
2026-05-08 08:05 34.56842 22.47418 34148 ft 399 kts 263°
2026-05-08 08:05 34.56108 22.40746 34146 ft 399 kts 263°
2026-05-08 08:06 34.55370 22.34072 34141 ft 399 kts 263°
2026-05-08 08:06 34.54628 22.27399 34144 ft 400 kts 263°
2026-05-08 08:07 34.53881 22.20719 34144 ft 400 kts 263°
2026-05-08 08:07 34.53131 22.14036 34141 ft 400 kts 263°
2026-05-08 08:08 34.52377 22.07356 34136 ft 400 kts 263°
2026-05-08 08:08 34.51625 22.00723 34132 ft 400 kts 263°
2026-05-08 08:09 34.50864 21.94046 34130 ft 399 kts 263°
2026-05-08 08:09 34.50100 21.87382 34133 ft 399 kts 263°
2026-05-08 08:10 34.49334 21.80722 34132 ft 398 kts 263°
2026-05-08 08:10 34.48566 21.74085 34135 ft 397 kts 263°
2026-05-08 08:11 34.47795 21.67455 34129 ft 397 kts 263°
2026-05-08 08:11 34.47022 21.60834 34124 ft 396 kts 263°
2026-05-08 08:12 34.46253 21.54277 34124 ft 395 kts 263°
2026-05-08 08:12 34.45476 21.47689 34123 ft 394 kts 263°
2026-05-08 08:13 34.44697 21.41119 34119 ft 394 kts 263°
2026-05-08 08:13 34.43916 21.34552 34122 ft 393 kts 263°
2026-05-08 08:14 34.43132 21.28001 34117 ft 392 kts 263°
2026-05-08 08:14 34.42347 21.21461 34120 ft 392 kts 262°
2026-05-08 08:15 34.41559 21.14935 34116 ft 392 kts 262°
2026-05-08 08:15 34.40769 21.08417 34120 ft 391 kts 262°
2026-05-08 08:16 34.39975 21.01900 34121 ft 391 kts 262°
2026-05-08 08:16 34.39184 20.95433 34116 ft 391 kts 262°
2026-05-08 08:17 34.38385 20.88927 34115 ft 391 kts 262°
2026-05-08 08:17 34.37582 20.82427 34117 ft 391 kts 262°